                ,  0.194,  0.291,  0.388,  0.485,  0.582,  0.679,  0.776,  0.873,  0.970,  1.067,  1.164,  1.261,  1.358,  1.455,  1.552,  1.650,  1.747,  1.844,  1.941,  2.038,  2.135,  2.232,  2.329,  2.426,  2.523,  2.620,  2.717,  2.814,  2.911,  3.008,  3.105,  3.202,  3.299,  3.396,  3.493,  3.590,  3.687,  3.784,  3.881,  3.978,  4.075,  4.172,  4.269,  4.366,  4.463,  4.560,  4.657,  4.754,  4.851,  4.949,  5.046,  5.143,  5.240,  5.337,  5.434,  5.531,  5.628,  5.725,  5.822,  5.919,  6.016,  6.113,  6.210,  6.307,  6.404,  6.501,  6.598,  6.695,  6.792,  6.889,  6.986,  7.083,  7.180,  7.277,  7.374,  7.471,  7.568,  7.665,  7.762
2007/10/13 00:00,   -0.1,   -0.1,   -0.1,   -1.1,   -2.0,   -1.3,   -0.3,   -0.6,   -0.5,   -0.5,    0.3,   -0.3,   -0.0,    0.4,    0.5,    0.7,    0.6,    1.3,    1.7,    1.4,    2.1,    1.6,    2.0,    3.7,    5.3,    5.8,    6.4,    5.6,    5.9,    6.8,    7.6,  999.0,  999.0,  999.0,    5.4,    5.7,    5.9,  999.0,    6.3,    5.9,  999.0,    5.4,  999.0,  999.0,  999.0,  999.0,  999.0,    5.8,  999.0,  999.0,  999.0,    6.1,    5.6,  999.0,  999.0,    3.9,    3.7,    3.0,  999.0,  999.0,  999.0,  999.0,  999.0,  999.0,    3.3,    1.6,    3.6,  999.0,  999.0,  999.0,  999.0,  999.0,  999.0,  999.0,  999.0,  999.0,  999.0,  999.0,  999.0
2007/10/13 00:10,   -0.2,   -0.4,   -0.2,   -0.5,   -1.3,   -0.6,   -0.1,   -0.7,   -0.5,   -0.6,   -0.3,   -0.5,   -0.0,    0.7,    0.5,    0.7,    0.3,    0.4,    1.1,    1.2,    1.3,    1.2,    2.0,    4.3,    5.0,    5.9,  999.0,    5.5,    6.0,    7.1,    6.4,    6.9,  999.0,  999.0,    5.2,    5.4,    6.1,    6.7,    5.8,    5.5,    4.3,    5.2,  999.0,  999.0,  999.0,  999.0,  999.0,  999.0,  999.0,  999.0,    5.1,    5.2,  999.0,  999.0,    3.5,    3.1,  999.0,  999.0,  999.0,    2.9,  999.0,  999.0,  999.0,  999.0,  999.0,  999.0,  999.0,  999.0,  999.0,  999.0,  999.0,  999.0,  999.0,  999.0,  999.0,  999.0,  999.0,  999.0,  999.0
2007/10/13 00:20,   -0.2,   -0.3,   -0.1,   -0.5,   -0.5,   -0.4,   -0.2,   -0.1,   -0.3,   -0.6,   -0.4,   -0.3,  999.0,   -0.4,    0.3,   -0.0,   -0.3,   -0.4,   -0.4,   -0.0,    0.1,    0.6,    1.9,    3.9,    4.7,  999.0,  999.0,    5.1,    5.7,    6.2,    6.0,    6.6,  999.0,  999.0,    5.0,    5.5,  999.0,  999.0,  999.0,    5.3,  999.0,  999.0,  999.0,  999.0,  999.0,  999.0,  999.0,  999.0,  999.0,  999.0,    5.6,    5.0,  999.0,  999.0,    3.0,  999.0,    3.7,    3.7,    3.1,    3.0,    2.1,    2.4,    3.2,    4.7,    5.0,    7.6,    7.9,  999.0,  999.0,  999.0,    6.4,  999.0,  999.0,  999.0,  999.0,  999.0,  999.0,  999.0,  999.0
2007/10/13 00:30,   -0.3,   -0.4,  999.0,   -0.5,   -0.4,   -0.4,   -0.1,   -0.4,   -0.4,   -0.3,   -0.1,    0.0,   -0.2,   -0.2,   -0.2,   -0.1,    0.3,   -0.2,  999.0,    0.4,    0.8,    1.0,    2.2,    3.9,    4.6,  999.0,  999.0,    5.6,    6.0,  999.0,    5.6,    6.5,  999.0,  999.0,    4.7,    5.2,    6.7,  999.0,  999.0,  999.0,    5.4,    5.6,    7.0,  999.0,  999.0,  999.0,  999.0,  999.0,  999.0,    4.8,    4.1,    4.2,  999.0,  999.0,  999.0,    2.0,    1.3,    1.8,    2.2,    2.6,    2.7,    3.5,    3.5,    4.7,    4.7,    6.1,    7.0,    7.1,    7.1,    8.2,    8.4,    7.9,    7.6,    8.6,  999.0,  999.0,  999.0,  999.0,  999.0
2007/10/13 00:40,   -0.1,   -0.4,   -0.2,   -0.6,   -0.4,   -0.1,   -0.2,   -0.3,   -0.4,   -0.1,    0.2,   -0.0,    0.0,    0.1,    0.3,    0.7,    1.1,  999.0,  999.0,    1.2,    1.3,    1.6,    3.4,    4.3,    5.5,    4.6,    4.9,    5.3,    4.6,  999.0,    5.1,  999.0,  999.0,    4.9,    5.0,    5.8,    7.0,  999.0,  999.0,    4.5,    4.5,    5.3,  999.0,  999.0,  999.0,  999.0,  999.0,  999.0,    5.6,    4.7,    3.3,    2.3,  999.0,  999.0,  999.0,    1.3,    1.6,    2.2,    2.7,    4.0,  999.0,    3.8,    4.0,    4.3,    5.2,    6.3,    6.4,    6.7,    7.5,    8.4,    8.6,    7.8,    7.8,    7.9,    8.3,  999.0,  999.0,  999.0,  999.0
2007/10/13 00:50,    0.1,   -0.2,   -0.1,   -0.4,   -0.5,   -0.1,   -0.1,   -0.3,   -0.0,   -0.1,    0.3,   -0.0,    0.3,    0.2,    0.8,    1.5,    1.1,    0.5,    0.9,    0.7,    0.8,    2.1,    3.8,    4.4,    5.7,  999.0,    5.0,    4.8,    4.8,    5.6,    6.0,  999.0,  999.0,    4.7,    5.3,    5.7,    5.3,    4.2,  999.0,  999.0,  999.0,  999.0,  999.0,  999.0,  999.0,  999.0,  999.0,  999.0,  999.0,    3.7,    2.8,    1.6,  999.0,  999.0,  999.0,  999.0,  999.0,  999.0,    2.1,  999.0,  999.0,    1.6,    3.0,    4.1,    4.3,    5.0,    6.3,    7.6,    8.3,    8.4,  999.0,    8.6,    8.1,  999.0,  999.0,  999.0,  999.0,  999.0,  999.0
2007/10/13 01:00,   -0.0,   -0.3,   -0.3,   -0.4,   -0.3,   -0.2,   -0.1,   -0.3,   -0.3,   -0.2,   -0.1,   -0.0,   -0.2,    0.2,    1.2,    1.2,    0.5,    0.2,    0.1,    0.2,    0.3,    2.8,    4.0,    5.2,    6.0,  999.0,  999.0,    2.4,    3.9,    5.0,    5.8,  999.0,    4.6,    4.8,    4.9,    4.4,    4.5,  999.0,  999.0,  999.0,    5.9,  999.0,  999.0,  999.0,  999.0,  999.0,  999.0,  999.0,  999.0,    3.1,    2.7,    2.0,    1.9,  999.0,  999.0,  999.0,  999.0,  999.0,  999.0,  999.0,  999.0,  999.0,  999.0,    2.9,    3.9,    4.7,    5.7,    6.4,    7.2,    7.6,    7.8,    8.2,  999.0,  999.0,  999.0,  999.0,  999.0,  999.0,  999.0
2007/10/13 01:10,   -0.4,   -0.2,   -0.3,   -0.5,   -0.7,   -0.2,   -0.1,   -0.0,   -0.8,   -0.6,    0.6,   -0.1,    0.1,    0.2,    1.0,    1.4,    1.0,  999.0,    0.5,    0.4,    0.5,    2.8,    4.1,    5.0,    5.6,  999.0,  999.0,  999.0,    3.5,    5.0,    5.3,    4.9,    4.7,    4.5,    4.6,    5.4,  999.0,  999.0,  999.0,  999.0,  999.0,  999.0,  999.0,  999.0,  999.0,  999.0,    6.0,    4.8,    3.5,    2.6,    2.2,  999.0,  999.0,  999.0,  999.0,  999.0,  999.0,  999.0,  999.0,  999.0,  999.0,  999.0,    2.3,  999.0,  999.0,    4.4,    5.5,    6.3,    7.4,    7.4,  999.0,  999.0,  999.0,  999.0,  999.0,  999.0,  999.0,  999.0,  999.0
2007/10/13 01:20,   -0.4,   -0.7,   -0.1,   -0.3,   -0.5,   -0.1,   -0.2,   -0.1,   -0.2,    0.1,  999.0,    0.2,    0.0,    0.1,    0.4,    1.2,    1.1,  999.0,  999.0,    0.3,    0.6,    3.1,    4.2,    5.4,    5.7,    5.7,  999.0,  999.0,    3.4,    5.0,    5.4,    5.3,    4.5,    4.7,    5.3,  999.0,  999.0,    6.7,  999.0,  999.0,  999.0,  999.0,  999.0,  999.0,  999.0,    6.8,    4.8,    3.5,    2.1,    1.9,  999.0,  999.0,  999.0,  999.0,  999.0,  999.0,    1.4,  999.0,  999.0,  999.0,  999.0,    2.2,  999.0,  999.0,  999.0,  999.0,  999.0,  999.0,  999.0,  999.0,  999.0,  999.0,  999.0,  999.0,  999.0,  999.0,  999.0,  999.0,  999.0
2007/10/13 01:30,   -0.8,   -0.6,   -0.2,   -0.6,   -0.5,   -0.1,    0.0,   -0.3,   -0.1,   -0.4,  999.0,   -0.2,   -0.5,   -0.8,   -0.4,    0.6,  999.0,   -0.0,    0.7,    0.5,    0.4,    2.3,    3.6,    5.1,    5.6,    5.3,    4.4,  999.0,  999.0,    4.2,    4.9,    5.2,    3.5,    4.6,  999.0,  999.0,  999.0,  999.0,    6.1,  999.0,  999.0,    7.6,    7.8,    8.2,    8.1,    7.3,    5.6,  999.0,    2.0,    1.1,  999.0,  999.0,    0.8,  999.0,  999.0,  999.0,    1.3,  999.0,  999.0,  999.0,  999.0,  999.0,  999.0,  999.0,  999.0,  999.0,  999.0,  999.0,  999.0,  999.0,  999.0,  999.0,  999.0,  999.0,  999.0,  999.0,  999.0,  999.0,  999.0
2007/10/13 01:40,   -0.2,   -0.1,   -0.1,   -0.3,   -0.6,    0.1,    0.2,   -0.3,  999.0,   -0.1,  999.0,    0.5,   -0.4,   -0.5,   -0.1,    0.6,  999.0,    0.5,    0.6,  999.0,  999.0,    2.3,    3.4,    4.5,    5.0,    4.2,    3.7,  999.0,    3.1,    4.2,    4.6,  999.0,    4.0,    3.9,  999.0,    6.2,  999.0,  999.0,    6.2,    6.7,    6.6,    7.2,    7.8,    8.2,  999.0,    5.6,  999.0,  999.0,    1.6,    1.3,    0.4,  999.0,    0.8,    1.1,    1.8,  999.0,    1.6,    1.4,    1.3,  999.0,  999.0,    2.3,    3.0,    3.7,    3.6,  999.0,  999.0,  999.0,  999.0,  999.0,  999.0,  999.0,  999.0,  999.0,  999.0,  999.0,  999.0,  999.0,  999.0
2007/10/13 01:50,   -0.0,   -0.4,   -0.3,   -0.4,   -0.4,   -0.0,    0.1,   -0.0,   -0.1,    0.5,  999.0,    0.9,    0.2,   -0.4,   -0.4,    0.3,    1.3,    0.6,    0.3,   -0.0,    0.5,    2.3,  999.0,  999.0,    4.3,    4.2,    4.0,  999.0,    3.6,    4.4,    4.5,    4.7,    4.4,    5.2,    6.1,    6.6,    5.8,    5.6,    5.8,  999.0,  999.0,  999.0,  999.0,  999.0,    5.2,    5.1,  999.0,  999.0,  999.0,  999.0,    0.4,  999.0,  999.0,    1.2,    2.3,    1.9,    1.8,    1.6,    1.2,    1.6,    2.6,    3.5,    4.2,  999.0,  999.0,  999.0,  999.0,  999.0,  999.0,  999.0,  999.0,  999.0,  999.0,  999.0,  999.0,  999.0,  999.0,  999.0,  999.0
2007/10/13 02:00,   -0.2,   -0.4,   -0.1,   -0.1,   -0.4,   -0.1,    0.0,    0.0,    0.2,   -0.3,    0.1,    0.1,    0.1,   -0.1,   -0.5,   -0.5,    0.5,    1.0,    0.3,   -0.2,   -0.3,    1.3,    2.5,  999.0,    3.6,    4.4,    4.4,    3.0,    2.3,    3.7,    4.0,    4.4,    4.8,    5.1,    5.8,    6.2,    5.1,    5.4,    6.1,    7.3,  999.0,  999.0,  999.0,    6.2,    5.1,    4.1,    3.6,    2.1,  999.0,  999.0,  999.0,  999.0,  999.0,  999.0,  999.0,  999.0,  999.0,  999.0,    2.0,  999.0,  999.0,  999.0,  999.0,  999.0,  999.0,  999.0,  999.0,  999.0,  999.0,  999.0,  999.0,  999.0,  999.0,  999.0,  999.0,  999.0,  999.0,  999.0,  999.0
2007/10/13 02:10,   -0.1,   -0.2,   -0.1,   -0.0,   -0.5,   -0.2,    0.0,   -0.2,    0.4,    0.1,   -0.4,    0.4,  999.0,   -0.3,   -0.2,   -0.6,    0.2,    0.6,   -0.4,   -0.2,   -0.3,    1.0,    2.3,    2.9,    4.5,    4.8,    5.1,    2.6,    2.1,    2.7,    3.7,    3.4,  999.0,    4.3,    4.8,    5.1,    5.0,    4.2,    5.2,    6.3,  999.0,  999.0,  999.0,  999.0,    7.2,    5.3,    3.6,  999.0,  999.0,  999.0,  999.0,  999.0,    1.2,  999.0,    0.2,    0.7,    1.2,    1.6,    2.4,    2.7,    2.8,  999.0,  999.0,  999.0,  999.0,  999.0,  999.0,  999.0,  999.0,  999.0,  999.0,  999.0,  999.0,  999.0,  999.0,  999.0,  999.0,  999.0,  999.0
2007/10/13 02:20,   -0.1,   -0.1,   -0.1,   -0.2,   -1.1,   -0.1,    0.1,    0.3,    0.0,    0.2,   -0.6,  999.0,    0.1,    0.1,   -0.2,   -0.6,   -0.5,    1.1,    0.1,  999.0,   -0.3,    0.5,    2.7,    3.6,    4.4,  999.0,  999.0,    2.7,  999.0,    2.6,    3.4,    3.2,    3.1,    3.7,    3.4,    3.6,    3.3,    3.3,    4.1,    5.4,  999.0,  999.0,    6.9,    7.7,  999.0,    3.7,    2.3,    1.3,  999.0,  999.0,  999.0,  999.0,    1.0,  999.0,  999.0,    3.5,    4.3,    5.2,    5.3,    7.3,    8.4,  999.0,  999.0,  999.0,  999.0,  999.0,  999.0,  999.0,  999.0,  999.0,  999.0,  999.0,  999.0,  999.0,  999.0,  999.0,  999.0,  999.0,  999.0
2007/10/13 02:30,    0.1,   -0.1,   -0.1,   -0.4,   -0.5,    0.1,   -0.0,    0.5,    0.5,    0.2,    0.2,  999.0,    0.2,    0.0,    0.0,   -0.4,    0.3,    0.7,    0.1,  999.0,  999.0,  999.0,    2.6,    3.7,  999.0,    4.6,  999.0,    2.5,  999.0,    2.7,    3.2,    3.2,    3.5,    2.5,    3.0,    2.7,    2.3,    2.6,    3.7,  999.0,  999.0,  999.0,  999.0,    5.3,  999.0,  999.0,  999.0,  999.0,  999.0,  999.0,  999.0,  999.0,  999.0,    1.6,    2.3,    3.5,    3.8,    4.4,    5.7,    6.5,    7.0,    6.9,    6.9,    7.1,    6.8,  999.0,  999.0,  999.0,  999.0,  999.0,  999.0,  999.0,  999.0,  999.0,  999.0,  999.0,  999.0,  999.0,  999.0
2007/10/13 02:40,   -0.2,   -0.2,   -0.1,   -0.3,    0.2,    0.2,    0.2,    0.2,    0.4,    0.4,    0.4,    0.5,    0.3,    0.6,   -0.2,   -0.1,    0.6,   -0.4,  999.0,   -0.7,  999.0,  999.0,    1.6,    2.5,  999.0,    3.7,  999.0,  999.0,  999.0,  999.0,    2.2,    2.6,    2.7,  999.0,    1.8,    1.6,    1.5,    1.5,    2.1,  999.0,  999.0,  999.0,  999.0,  999.0,  999.0,  999.0,  999.0,  999.0,  999.0,  999.0,  999.0,  999.0,  999.0,    2.2,    2.7,    3.3,    3.0,    3.3,    4.5,    5.8,    6.6,    7.0,    7.3,    7.0,    6.8,    7.3,    7.9,  999.0,  999.0,  999.0,  999.0,  999.0,  999.0,  999.0,  999.0,  999.0,  999.0,  999.0,  999.0
